Regional Weather Roundup
Issued by NWS

Home | Current Version | Previous Version | Graphics & Text | Print | Product List | Glossary On
Versions: 1 2 3 4 5 6 7 8 9 10 11 12 13 14 15 16 17 18 19 20 21 22 23 24 25 26 27 28 29 30 31 32 33 34 35 36 37 38 39 40 41 42 43 44 45 46 47 48 49 50
783
ASUS43 KLMK 242302
RWRKY
KENTUCKY REGIONAL WEATHER ROUNDUP
NATIONAL WEATHER SERVICE LOUISVILLE KY
600 PM EST FRI FEB 24 2017

NOTE "FAIR" INDICATES FEW OR NO CLOUDS BELOW 12,000 FEET
WITH NO SIGNIFICANT WEATHER AND/OR OBSTRUCTIONS TO VISIBILITY.

KYZ001>023-026-027-061>063-070>075-250000-
WESTERN AND SOUTH CENTRAL KENTUCKY

CITY           SKY/WX    TMP DP  RH WIND       PRES   REMARKS
PADUCAH        CLOUDY    64  54  69 SW13G21   29.62S
HENDERSON      CLOUDY    63  54  72 SW17G24   29.59S
OWENSBORO      CLOUDY    69  55  60 W24G32    29.58R
HOPKINSVILLE   CLOUDY    68  54  61 W22       29.65R
BOWLING GREEN  CLOUDY    77  53  43 S16       29.60R
GLASGOW        NOT AVBL
$$

KYZ024-025-028>034-038-045-046-053-250000-
NORTH CENTRAL KENTUCKY

CITY           SKY/WX    TMP DP  RH WIND       PRES   REMARKS
LOUISVILLE/SDF CLOUDY    77  50  38 S22G31    29.54F
LOUISVILLE/LOU CLOUDY    77  51  40 S16G28    29.55S
FORT KNOX      MOCLDY    74  53  47 S12       29.54F
$$

KYZ035>037-039>044-047>052-055>060-089>105-250000-
NORTHEAST KENTUCKY

CITY           SKY/WX    TMP DP  RH WIND       PRES   REMARKS
LEXINGTON      PTCLDY    74  52  46 S14       29.60R
COVINGTON      MOCLDY    74  51  44 S15G24    29.54F
FRANKFORT      MOCLDY    76  48  37 SW15G26   29.58R
$$

KYZ054-064>069-076>088-106>120-250000-
SOUTHEAST KENTUCKY

CITY           SKY/WX    TMP DP  RH WIND       PRES   REMARKS
JACKSON        CLEAR     74  48  39 S8        29.65F
LONDON         CLEAR     73  49  42 S13       29.66R
SOMERSET       CLEAR     72  48  43 S12G18    29.66S
MIDDLESBORO    CLEAR     73  51  45 SW3G12    29.69S
MONTICELLO     MOCLDY    73  53  49 S7G16     29.67R
$$





USA.gov is the U.S. government's official web portal to all federal, state and local government web resources and services.